Regional Weather Roundup
Issued by NWS

Home | Current Version | Previous Version | Graphics & Text | Print | Product List | Glossary On
Versions: 1 2 3 4 5 6 7 8 9 10 11 12 13 14 15 16 17 18 19 20 21 22 23 24 25 26 27 28 29 30 31 32 33 34 35 36 37 38 39 40 41 42 43 44 45 46 47 48 49 50
000
ASUS43 KLOT 231709
RWRIL

ILLINOIS REGIONAL WEATHER ROUNDUP
NATIONAL WEATHER SERVICE CHICAGO/ROMEOVILLE IL
1200 PM CDT TUE MAY 23 2017

NOTE: "FAIR" INDICATES FEW OR NO CLOUDS BELOW 12,000 FEET WITH NO
SIGNIFICANT WEATHER AND/OR OBSTRUCTIONS TO VISIBILITY.

* THESE STATIONS ARE NOT UNDER NWS QUALITY CONTROL. THEY ALSO MAY NOT
  REPORT WEATHER SUCH AS PRECIPITATION OR FOG.

ILZ001-002-007-009-015-016-024-231800-
NORTHWEST ILLINOIS

CITY           SKY/WX    TMP DP  RH WIND       PRES   REMARKS
MOLINE           N/A    N/A N/A N/A MISG      29.76F
STERLING*      LGT RAIN  58  56  93 CALM      29.77F
SAVANNA*       CLOUDY    60  53  77 SW3       29.76F
$$

ILZ003-004-008-010-011-017-018-231800-
NORTH CENTRAL ILLINOIS

CITY           SKY/WX    TMP DP  RH WIND       PRES   REMARKS
ROCKFORD       LGT RAIN  60  55  83 SW8       29.78F
FREEPORT*      CLOUDY    59  51  75 SW7       29.78F
ROCHELLE*      LGT RAIN  60  55  84 S12       29.78F
DE KALB*       CLOUDY    60  55  83 S13       29.79F
PERU*          DRIZZLE   57  54  91 SW7       29.79S
$$

ILZ005-006-012>014-019>023-231800-
NORTHEAST ILLINOIS

CITY           SKY/WX    TMP DP  RH WIND       PRES   REMARKS
CHICAGO-OHARE  CLOUDY    61  53  75 SW8       29.78F
CHICAGO-MIDWAY LGT RAIN  62  54  74 SW5       29.79F
AURORA         CLOUDY    60  56  86 SW3       29.79F
LANSING*       CLOUDY    61  55  79 CALM      29.80F
WAUKEGAN       CLOUDY    63  53  70 S13       29.78S
DUPAGE AIRPORT CLOUDY    59  57  93 SW7       29.78F
KANKAKEE*      CLOUDY    66  54  66 CALM      29.79F
WHEELING       LGT RAIN  60  55  83 SW6       29.80S
MORRIS*        CLOUDY    59  55  84 CALM      29.77F
ROMEOVILLE*    CLOUDY    60  56  87 CALM      29.79F
NORTHERLY ISL    N/A     61  52  72 S5          N/A
$$

LMZ740>746-231800-
SOUTHERN LAKE MICHIGAN

STATION/POSITION SKY/WX   TEMP    WIND        PRES    VSBY  WAVE
                          AIR SEA DIR/SP/G                  HT/PER
                          (F)     (DEG/KT/KT) (MB)    (MI)  (FT/S)
SOUTHERN BUOY              49 45  190/  8/ 10 1009.5          1
WILMETTE HARBOR            55 54                N/A           1
HARRISON CRIB              60     190/  8/  8   N/A
BURNHAM HARBOR             61     210/  3/  8   N/A
CALUMET HARBOR             62     250/  2/  4 1008.7F
BURNS HARBOR               58      20/  2/  3 1010.2F
MICHIGAN CITY              59     280/  1/  2   N/A
MICHIGAN CITY 6N           56 53  100/  2/  4   N/A           0
ST. JOSEPH                 56 56  190/  2/  4 1010.2          1/ 3
$$

ILZ025>027-034>036-040-047-049-050-058-095>099-231800-
WEST-CENTRAL ILLINOIS

CITY           SKY/WX    TMP DP  RH WIND       PRES   REMARKS
QUINCY         LGT RAIN  58  56  93 NW9       29.79S FOG
GALESBURG*     HVY RAIN  56  56  98 SW5       29.77F
MACOMB*        LGT RAIN  58  57  97 W9        29.80S
JACKSONVILLE*  LGT RAIN  57  56  94 CALM      29.79F
PITTSFIELD*    LGT RAIN  59  57  94 W5        29.80F
$$

ILZ028>032-037-038-041>044-048-051>054-059>061-231800-
CENTRAL ILLINOIS

CITY           SKY/WX    TMP DP  RH WIND       PRES   REMARKS
PONTIAC        LGT RAIN  60  58  92 CALM      29.79F
BLOOMINGTON    CLOUDY    61  55  81 CALM      29.80F
DECATUR        CLOUDY    66  54  65 E5        29.77F
PEORIA         RAIN      57  57 100 S6        29.78F FOG
LACON*         RAIN      57  56  98 CALM      29.78F
LINCOLN*       LGT RAIN  61  57  88 CALM      29.79S
SPRINGFIELD    CLOUDY    62  57  83 N6        29.79F
TAYLORVILLE    CLOUDY    65  55  69 CALM      29.77S
$$

ILZ033-039-045-046-055>057-062-063-231800-
EAST-CENTRAL ILLINOIS

CITY           SKY/WX    TMP DP  RH WIND       PRES   REMARKS
CHAMPAIGN      CLOUDY    67  51  56 VRB5      29.78F
RANTOUL*       CLOUDY    68  57  67 SE5       29.78F
MATTOON        CLOUDY    69  56  62 VRB3      29.76F
PARIS*         CLOUDY    69  53  55 SE7       29.78F
$$

ILZ079-100>102-231800-
SOUTHWEST ILLINOIS

CITY           SKY/WX    TMP DP  RH WIND       PRES   REMARKS
ALTON          CLOUDY    66  54  63 NW7       29.77S
BELLEVILLE     MOSUNNY   72  52  48 S3        29.75F
CAHOKIA*       CLOUDY    71  53  52 NW9       29.75F
SPARTA*        MOSUNNY   71  51  50 SW7       29.76F
$$

ILZ064>066-069>071-074>076-080>082-084>086-088>090-092>094-231800-
SOUTH-CENTRAL ILLINOIS

CITY           SKY/WX    TMP DP  RH WIND       PRES   REMARKS
CARBONDALE     CLOUDY    71  52  50 S5        29.75F
CAIRO*         PTSUNNY   73  54  51 W6        29.76F
EFFINGHAM*     MOSUNNY   70  56  60 W5        29.77F
MARION         PTSUNNY   73  54  49 SW6       29.77F
MT. VERNON       N/A     72  52  49 CALM      29.76F
CENTRALIA*     MOSUNNY   74  53  47 SW5       29.75S
SALEM*         MOSUNNY   73  51  46 SW3       29.75F
METROPOLIS*    MOSUNNY   75  53  45 W5        29.76F
$$

ILZ067-068-072-073-078-083-087-091-231800-
SOUTHEAST ILLINOIS

CITY           SKY/WX    TMP DP  RH WIND       PRES   REMARKS
LAWRENCEVILLE  MOSUNNY   72  49  44 S9        29.76F
FLORA*         SUNNY     71  53  52 CALM      29.76F
FAIRFIELD*     MOSUNNY   71  52  50 CALM      29.75F
HARRISBURG*    MOSUNNY   74  52  46 SW6       29.76F
ROBINSON*      MOSUNNY   72  49  44 SE5       29.78F
CARMI*         MOSUNNY   74  51  45 CALM      29.75F
$$

ABBREVIATIONS USED IN REMARKS
   TC - TEMPERATURE IN CELSIUS
  WCI - WIND CHILL INDEX
   HX - HEAT INDEX
  VSB - VISIBILITY
$$




USA.gov is the U.S. government's official web portal to all federal, state and local government web resources and services.